CAPE
0 0 0 0 0 0 0 0 0 0 0 0 0 0 0 0 0 0 0 0 0 0 0 0 0 0 0 0 0 0 0 0 0 0 0 0 0 0 0 0 0 0 1 3
0 0 0 0 0 0 0 0 0 0 0 0 0 0 0 0 0 0 0 0 0 0 0 0 0 0 0 0 0 0 0 0 0 0 0 0 0 0 0 0 2 7 0 0
0 0 0 0 0 0 0 0 0 0 0 0 0 0 0 0 0 0 0 0 0 0 0 0 0 0 0 0 0 0 0 0 0 0 0 0 0 0 0 0 0 0 0 0
0 0 0 0 0 0 0 0 0 0 0 0 0 0 0 0 0 0 0 0 0 0 0 0 0 0 0 0 0 0 0 0 0 0 0 0 0 0 0 0 0 0 0 0
0 0 0 0 0 0 0 0 0 0 0 0 0 0 0 0 0 0 0 0 0 0 0 0 0 0 0 0 0 0 0 0 0 0 0 0 0 0 0 0 0 0 0 0
0 0 0 0 0 0 0 0 0 0 0 0 0 0 0 0 0 0 0 0 0 0 0 0 0 0 0 0 0 0 0 0 0 0 0 0 0 0 0 0 0 0 0 5
0 0 0 0 0 0 0 0 0 0 0 0 0 0 0 0 0 0 0 0 0 0 0 0 0 0 0 0 0 0 0 0 0 0 0 0 0 0 0 0 0 0 0 0
0 0 0 0 0 0 0 0 0 0 0 0 0 0 0 0 0 0 0 0 0 0 0 0 0 0 0 0 0 0 0 0 0 0 0 0 0 0 0 0 0 0 0 0
0 0 0 0 0 0 0 0 0 0 0 0 0 0 0 0 0 0 0 0 0 0 0 0 0 0 0 0 0 0 0 0 0 0 0 0 0 0 0 0 0 0 0 0
0 0 0 0 0 0 0 0 0 0 0 0 0 0 0 0 0 0 0 0 0 0 0 0 0 0 0 0 0 0 0 0 0 0 0 0 0 0 0 0 0 0 0 0
0 0 0 0 0 0 0 0 0 0 0 0 0 0 0 0 0 0 0 0 0 0 0 0 0 0 0 0 0 0 0 0 0 0 0 0 0 0 0 0 0 0 0 0
0 0 0 0 0 0 0 0 0 0 0 0 0 0 0 0 0 0 0 0 0 0 0 0 0 0 0 0 0 0 0 0 0 0 0 0 4 0 0 0 0 0 0 0
0 0 0 0 0 0 0 0 0 0 0 0 0 0 0 0 0 0 0 0 0 0 0 0 0 0 0 0 0 0 0 0 0 0 0 0 4 0 0 0 0 0 0 0
0 0 0 0 0 0 0 0 0 0 0 0 0 0 0 0 0 0 0 0 0 0 0 0 0 0 0 0 0 0 0 0 0 0 0 0 0 0 0 0 0 0 0 0
0 0 0 0 0 0 0 0 0 0 0 0 0 0 0 0 0 0 0 0 0 0 0 0 0 0 0 0 0 0 0 0 0 0 0 0 0 0 0 0 0 0 0 0
0 0 0 0 0 0 0 0 0 0 0 0 0 0 0 0 0 0 0 0 0 0 0 0 0 0 0 0 0 0 0 0 0 0 0 0 0 0 0 0 0 0 0 0
0 0 0 0 0 0 0 0 0 0 0 0 0 0 0 0 0 0 0 0 0 0 0 0 0 0 0 0 0 0 0 0 0 0 0 0 0 0 0 0 0 0 0 1
0 0 0 0 0 0 0 0 0 0 0 0 0 0 0 0 0 0 0 0 0 0 0 0 0 0 0 0 0 0 0 0 0 0 0 0 0 0 0 0 0 0 0 1
0 0 0 0 0 0 0 0 0 0 0 0 0 0 0 0 0 0 0 0 0 0 0 0 0 0 0 0 0 0 0 0 0 0 0 0 0 0 0 0 0 0 0 0
0 0 0 0 0 0 0 0 0 0 0 0 0 0 0 0 0 0 0 0 0 0 0 0 0 0 0 0 0 0 0 0 0 0 0 0 0 0 0 0 0 0 0 0
0 0 0 0 0 0 0 0 0 0 0 0 0 0 0 0 0 0 0 0 0 0 0 0 0 0 0 0 0 0 0 0 0 0 0 0 0 0 0 0 0 0 0 0
0 0 0 0 0 0 0 0 0 0 0 0 0 0 0 0 0 0 0 0 0 0 0 0 0 0 0 0 0 0 0 0 0 0 0 0 0 0 0 0 0 0 0 0
0 0 0 0 1 0 0 0 0 0 0 0 0 0 0 0 0 0 0 0 0 0 0 0 0 0 0 0 0 0 0 0 0 0 0 0 0 0 0 0 0 0 0 0
0 1 0 0 0 0 0 0 0 0 0 0 0 0 0 0 0 0 0 0 0 0 0 0 0 0 0 0 0 0 0 0 0 0 0 0 0 0 0 0 0 0 0 0
0 0 0 0 0 0 0 0 0 0 0 0 0 0 0 0 0 0 0 0 0 0 0 0 0 0 0 0 0 0 0 0 0 0 0 0 0 0 0 0 0 0 0 0
1 0 0 0 1 3 0 0 0 0 0 0 0 0 0 0 0 0 0 0 0 0 0 0 0 0 0 0 0 0 0 0 0 0 0 0 0 0 0 0 0 0 0 0
CIN
0 0 0 0 0 0 0 0 0 0 0 0 0 0 0 0 0 0 0 0 0 0 0 0 0 0 0 0 0 0 0 0 0 0 0 0 0 0 0 0 0 0 -81 -76
0 0 0 0 0 0 0 0 0 0 0 0 0 0 0 0 0 0 0 0 0 0 0 0 0 0 0 0 0 0 0 0 0 0 0 0 0 0 0 0 -194 -127 0 0
0 0 0 0 0 0 0 0 0 0 0 0 0 0 0 0 0 0 0 0 0 0 0 0 0 0 0 0 0 0 0 0 0 0 0 0 0 0 0 0 0 0 0 0
0 0 0 0 0 0 0 0 0 0 0 0 0 0 0 0 0 0 0 0 0 0 0 0 0 0 0 0 0 0 0 0 0 0 0 0 0 0 0 0 0 0 0 0
0 0 0 0 0 0 0 0 0 0 0 0 0 0 0 0 0 0 0 0 0 0 0 0 0 0 0 0 0 0 0 0 0 0 0 0 0 0 0 0 0 0 0 -5
0 0 0 0 0 0 0 0 0 0 0 0 0 0 0 0 0 0 0 0 0 0 0 0 0 0 0 0 0 0 0 0 0 0 0 0 0 0 0 0 0 0 0 -64
0 0 0 0 0 0 0 0 0 0 0 0 0 0 0 0 0 0 0 0 0 0 0 0 0 0 0 0 0 0 0 0 0 0 0 0 0 0 0 0 0 0 0 -8
0 0 0 0 0 0 0 0 0 0 0 0 0 0 0 0 0 0 0 0 0 0 0 0 0 0 0 0 0 0 0 0 0 0 0 0 0 0 0 0 0 0 0 0
0 0 0 0 0 0 0 0 0 0 0 0 0 0 0 0 0 0 0 0 0 0 0 0 0 0 0 0 0 0 0 0 0 0 0 0 0 0 0 0 0 0 0 0
0 0 0 0 0 0 0 0 0 0 0 0 0 0 0 0 0 0 0 0 0 0 0 0 0 0 0 0 0 0 0 0 0 0 0 0 0 0 0 0 0 0 0 0
0 0 0 0 0 0 0 0 0 0 0 0 0 0 0 0 0 0 0 0 0 0 0 0 0 0 0 0 0 0 0 0 0 0 0 -11 -7 0 0 0 0 0 0 0
0 0 0 0 0 0 0 0 0 0 0 0 0 0 0 0 0 0 0 0 0 0 0 0 0 0 0 0 0 0 0 0 0 0 0 0 -48 -4 0 0 0 0 0 0
0 0 0 0 0 0 0 0 0 0 0 0 0 0 0 0 0 0 0 0 0 0 0 0 0 0 0 0 0 0 0 0 0 0 0 0 -46 0 0 0 0 0 0 0
0 0 0 0 0 0 0 0 0 0 0 0 0 0 0 0 0 0 0 0 0 0 0 0 0 0 0 0 0 0 0 0 0 0 0 0 0 0 0 0 0 0 0 0
0 0 0 0 0 0 0 0 0 0 0 0 0 0 0 0 0 0 0 0 0 0 0 0 0 0 0 0 0 0 0 0 0 0 0 0 0 0 0 0 0 0 0 0
0 0 0 0 0 0 0 0 0 0 0 0 0 0 0 0 0 0 0 0 0 0 0 0 0 0 0 0 0 0 0 0 0 0 0 0 0 0 0 0 0 0 0 0
0 0 0 0 0 0 0 0 0 0 0 0 0 0 0 0 0 0 0 0 0 0 0 0 0 0 0 0 0 0 0 0 0 0 0 0 0 0 0 0 0 0 0 -31
0 0 0 0 0 0 0 0 0 0 0 0 0 0 0 0 0 0 0 0 0 0 0 0 0 0 0 0 0 0 0 0 0 0 0 0 0 0 0 0 0 0 0 -54
0 0 0 0 0 0 0 0 0 0 0 0 0 0 0 0 0 0 0 0 0 0 0 0 0 0 0 0 0 0 0 0 0 0 0 0 0 0 0 0 0 0 0 0
0 0 0 0 0 0 0 0 0 0 0 0 0 0 0 0 0 0 0 0 0 0 0 0 0 0 0 0 0 0 0 0 0 0 0 0 0 0 0 0 0 0 0 0
0 0 0 0 0 0 0 0 0 0 0 0 0 0 0 0 0 0 0 0 0 0 0 0 0 0 0 0 0 0 0 0 0 0 0 0 0 0 0 0 0 0 0 0
0 0 0 0 0 0 0 0 0 0 0 0 0 0 0 0 0 0 0 0 0 0 0 0 0 0 0 0 0 0 0 0 0 0 0 0 0 0 0 0 0 0 0 0
0 0 0 0 0 0 0 0 0 0 0 0 0 0 0 0 0 0 0 0 0 0 0 0 0 0 0 0 0 0 0 0 0 0 0 0 0 0 0 0 0 0 0 0
0 0 0 0 0 0 0 0 0 0 0 0 0 0 0 0 0 0 0 0 0 0 0 0 0 0 0 0 0 0 0 0 0 0 0 0 0 0 0 0 0 0 0 0
0 0 0 0 0 0 0 0 0 0 0 0 0 0 0 0 0 0 0 0 0 0 0 0 0 0 0 0 0 0 0 0 0 0 0 0 0 0 0 0 0 0 0 0
-20 0 0 0 0 -1 0 0 0 0 0 0 0 0 0 0 0 0 0 0 0 0 0 0 0 0 0 0 0 0 0 0 0 0 0 0 0 0 0 0 0 0 0 0
Wind_Speed
28 33 40 33 32 34 40 44 50 50 36 42 45 45 47 45 40 42 42 40 39 37 33 17 8 3 4 4 6 8 5 3 1 6 9 11 15 16 18 18 16 12 10 9
31 42 30 31 33 36 43 49 53 51 36 40 48 52 47 45 44 37 34 39 36 34 21 13 7 1 5 5 8 7 4 3 1 6 10 14 16 17 17 18 18 14 13 12
34 39 27 26 28 31 35 38 54 50 40 41 45 51 48 39 34 30 26 30 30 26 11 8 4 3 1 7 10 7 5 3 3 7 13 15 17 18 19 19 20 18 16 14
41 42 27 30 24 23 26 28 42 45 40 42 27 45 45 42 42 37 35 33 34 27 16 7 4 3 7 10 10 7 5 4 5 8 12 15 17 20 17 18 19 18 18 16
38 29 31 26 23 18 26 24 32 37 41 41 39 42 36 31 37 38 37 36 34 20 6 4 6 8 11 12 10 7 5 5 6 8 11 14 18 16 16 17 18 18 17 15
40 31 29 33 25 19 22 22 25 29 35 48 45 40 36 34 33 30 25 24 24 10 8 9 10 11 12 12 10 7 6 6 8 8 10 14 16 15 17 18 19 17 14 13
37 43 28 29 30 18 21 18 23 28 31 44 32 34 36 27 10 25 29 28 16 9 10 10 12 13 13 12 10 8 8 7 8 9 11 13 15 15 17 18 16 16 14 15
40 39 36 28 32 25 23 24 27 37 40 36 27 37 32 20 18 26 27 14 5 8 9 11 13 13 13 12 10 9 9 9 9 10 12 13 14 16 18 18 16 16 16 19
38 43 24 32 28 23 27 33 27 33 28 31 29 33 31 23 31 27 22 11 5 8 9 12 13 13 14 13 12 12 10 10 11 11 12 13 14 16 18 18 18 19 20 22
33 36 35 29 26 27 30 25 31 33 35 32 26 31 25 18 19 17 18 6 9 10 11 13 14 16 14 14 14 13 12 12 12 12 13 13 14 16 17 17 20 20 21 23
35 35 29 27 37 29 31 30 27 26 31 26 30 31 22 30 25 21 13 9 13 11 15 13 17 17 15 15 16 14 13 12 12 13 14 14 15 15 16 17 18 19 21 22
32 34 37 36 27 32 32 32 32 35 33 35 27 28 17 24 28 23 5 9 9 13 15 15 18 17 15 16 17 15 14 13 13 14 14 15 15 16 16 17 19 19 22 21
29 38 40 31 32 27 36 38 41 30 28 49 36 24 22 22 21 19 14 9 7 15 14 16 18 18 16 18 18 16 15 14 14 14 15 16 16 17 18 19 21 21 23 23
28 37 43 45 31 27 30 43 49 47 39 31 35 23 26 20 23 25 20 11 9 15 15 18 19 19 18 19 19 17 16 15 15 16 17 17 18 19 20 23 23 24 23 26
26 38 38 45 43 33 28 35 47 54 54 42 35 35 36 30 27 26 12 11 12 13 16 18 20 19 19 20 19 18 17 17 17 18 18 19 20 22 23 25 26 26 26 26
27 36 34 41 43 45 40 38 36 50 50 51 36 41 36 33 28 25 15 15 16 16 18 19 20 20 21 21 20 19 18 18 18 19 20 21 23 24 24 25 26 26 26 25
28 32 34 41 33 39 50 53 39 33 42 45 45 47 31 32 32 31 18 21 20 20 19 19 21 21 22 22 22 20 20 19 20 21 22 24 24 24 24 24 24 25 24 24
31 32 33 37 32 42 39 33 41 42 35 38 45 35 42 40 36 31 28 25 24 22 20 20 22 22 22 22 22 21 21 20 22 23 23 24 24 25 26 26 25 24 24 25
34 32 35 37 38 31 29 22 28 31 33 26 31 35 31 34 30 36 36 30 27 24 22 21 21 23 22 23 23 22 22 22 23 24 24 23 23 24 26 26 25 24 25 25
27 36 36 36 38 40 27 29 25 26 34 23 26 29 31 31 38 39 34 34 28 21 20 21 21 21 23 24 23 23 23 23 23 25 25 24 24 25 25 25 25 24 23 25
23 26 36 38 37 30 27 25 22 30 32 27 27 29 32 34 38 32 31 30 27 22 23 21 21 21 24 23 23 23 24 25 24 25 25 24 25 26 26 26 25 25 25 26
26 27 32 33 36 38 20 19 24 24 27 28 29 29 34 37 39 39 33 38 12 18 21 24 23 23 23 25 24 23 24 26 24 24 24 24 25 25 24 24 25 25 25 26
26 20 28 27 30 25 22 20 20 22 26 27 29 31 32 36 37 39 38 37 21 19 23 26 25 24 23 24 25 25 24 24 24 23 23 23 23 24 23 21 22 24 25 26
20 20 23 26 24 27 26 21 22 22 24 27 28 29 30 35 35 38 41 38 24 13 22 23 23 25 24 24 26 27 21 23 24 25 25 22 21 21 24 24 24 26 27 26
19 21 25 24 25 24 17 22 25 26 26 26 25 26 27 30 32 33 37 38 16 15 16 20 23 26 25 23 24 22 22 22 23 26 25 25 22 21 22 26 27 27 27 25
17 20 22 25 22 28 30 28 28 27 27 26 26 26 25 26 30 33 34 31 14 14 14 17 19 19 20 21 21 20 21 23 22 21 25 26 25 23 20 21 22 20 28 26
Wind_Direction
251 251 226 232 244 262 269 271 273 273 287 283 284 286 278 274 288 278 271 265 264 262 295 329 331 291 227 215 186 173 169 165 12 355 356 354 352 356 355 359 3 11 16 9
250 225 238 258 255 257 263 266 268 267 284 282 279 274 276 274 273 286 252 266 260 277 321 334 342 304 196 188 173 168 161 151 28 7 360 358 356 358 359 1 5 11 6 357
233 229 256 252 255 252 259 262 260 266 278 277 280 273 272 275 285 291 297 280 281 305 327 336 336 327 203 170 157 150 143 113 48 15 1 1 359 359 359 6 4 9 10 9
251 250 250 251 243 249 248 264 268 267 271 272 285 276 267 276 272 275 276 281 279 313 337 352 4 15 132 140 138 128 116 81 41 23 9 3 0 357 9 10 8 10 13 22
249 244 235 238 227 234 266 270 270 266 265 269 272 262 272 288 273 267 267 275 272 319 348 30 75 96 117 128 127 115 97 67 45 27 18 9 1 11 14 14 11 10 18 31
250 256 242 251 255 247 267 271 273 270 267 257 251 246 261 279 271 268 285 298 303 7 48 65 76 100 114 119 115 101 91 72 42 35 27 15 14 20 18 16 11 17 32 50
247 246 254 247 249 248 249 258 266 264 260 236 265 256 246 273 298 278 264 272 332 58 66 80 97 112 117 122 114 100 95 59 49 37 36 20 24 26 25 21 32 35 61 86
241 245 238 243 244 247 237 246 254 251 247 259 266 244 262 284 194 262 282 314 31 98 73 89 107 116 120 120 111 103 95 65 56 47 39 37 40 37 31 31 48 58 91 116
239 242 253 240 245 231 246 246 247 256 267 261 258 252 271 279 252 269 296 319 90 105 89 104 113 121 122 120 116 114 96 73 75 62 54 60 58 49 42 57 66 84 122 121
245 243 244 245 243 235 243 243 243 247 254 255 273 260 260 272 270 286 311 350 111 102 100 107 120 126 121 120 119 113 98 86 82 67 75 76 76 59 65 80 81 108 139 145
240 241 243 234 234 232 234 238 247 248 250 259 264 260 268 245 256 282 320 103 126 107 120 113 126 127 121 118 122 117 101 89 79 75 90 90 86 70 75 82 109 126 147 156
238 238 234 237 245 235 237 236 240 243 243 247 259 253 268 253 245 271 11 106 99 113 116 117 127 128 123 125 128 122 109 99 91 97 97 98 91 73 92 113 126 145 138 166
244 232 227 234 237 239 233 234 234 241 248 212 243 255 260 254 259 275 144 114 91 117 105 113 128 132 127 131 133 125 118 113 98 92 95 90 88 80 94 109 127 143 139 144
249 233 229 228 238 235 236 230 226 231 236 238 234 251 242 247 255 253 172 127 105 120 114 125 135 137 133 136 136 128 123 113 102 99 100 89 93 92 97 108 116 130 145 119
247 231 235 237 235 239 241 234 224 219 214 234 236 240 226 239 250 244 132 125 119 115 127 137 142 141 139 140 139 133 123 115 112 108 106 97 100 98 108 105 106 111 119 125
248 233 242 235 236 235 239 238 238 217 226 221 242 238 238 242 260 247 137 138 138 134 139 141 143 143 145 144 143 138 130 123 120 117 114 114 111 103 102 103 111 110 106 109
243 237 237 230 239 236 236 225 236 239 235 227 230 213 246 244 234 194 150 156 156 152 147 145 148 148 148 147 145 142 137 125 128 128 127 125 110 111 114 116 112 113 114 126
241 237 233 229 233 228 235 241 238 237 239 233 228 244 235 227 216 192 174 169 169 162 156 151 150 150 149 147 145 142 136 133 135 136 132 128 119 116 120 121 127 128 123 128
239 235 228 225 226 234 234 244 242 238 238 250 241 243 248 241 244 224 201 183 178 169 164 155 150 151 147 149 147 144 141 138 140 142 138 131 127 124 126 126 132 134 119 127
252 233 227 223 223 223 238 253 253 243 233 256 250 248 247 243 228 213 194 190 180 167 159 154 149 148 149 152 148 146 148 144 146 148 144 136 134 129 134 132 136 141 146 135
243 227 223 224 224 232 261 260 246 228 235 257 256 252 247 238 229 236 240 181 177 168 163 154 150 150 155 151 149 151 152 154 151 149 147 142 144 142 143 138 143 144 140 135
237 234 226 226 225 225 284 247 232 249 255 258 258 258 250 246 242 237 240 219 175 164 160 159 156 156 150 152 152 153 158 158 151 147 147 146 148 148 141 139 140 137 133 135
237 242 233 234 228 247 264 252 263 269 265 264 263 261 259 251 246 242 233 228 183 171 165 163 161 156 153 155 158 160 160 155 153 150 149 147 144 149 143 134 132 139 143 143
250 260 245 239 240 252 253 257 274 278 277 272 270 268 264 252 252 247 235 232 245 185 167 162 158 161 160 161 163 167 154 154 156 159 159 150 144 143 151 151 148 152 156 156
262 262 250 246 248 249 254 272 275 278 280 280 279 278 270 260 254 249 238 233 242 183 176 167 164 165 165 162 164 160 158 156 158 162 162 161 152 149 147 161 163 165 166 156
264 260 250 243 260 250 254 270 276 276 279 281 278 279 278 272 260 251 243 241 229 204 186 174 169 165 161 162 163 163 161 161 159 159 164 166 163 159 152 150 165 242 192 171